Weather History for 07150 - October, 2013

Change the Weather History Date:

Tuesday, October 8, 2013

  Actual Average Record
Temperature  
Mean Temperature 60 °F -  
Max Temperature 68 °F 57 °F - ()
Min Temperature 51 °F 45 °F - ()
Degree Days  
Heating Degree Days 6    
Growing Degree Days 10 (Base 50)    
Moisture  
Dew Point 52 °F    
Average Humidity 80    
Maximum Humidity 94    
Minimum Humidity 49    
Precipitation  
Precipitation 0.00 in 0.07 in - ()
Sea Level Pressure  
Sea Level Pressure 30.29 in    
Wind  
Wind Speed 2 mph ()    
Max Wind Speed 7 mph    
Max Gust Speed -    
Visibility 6.2 miles    
Events      
T = Trace of Precipitation, MM = Missing Value Source: Averaged Metar Reports

Daily Weather History Graph

Daily Weather History Graph

Search for Another Location

Airport or City:

Trip Planner

Search our weather history database for the weather conditions in past years. The results will help you decide how hot, cold, wet, or windy it might be!

Date:

Astronomy

Oct. 08, 2013 Rise Set
Actual Time 8:00 AM CEST 7:14 PM CEST
Civil Twilight 7:28 AM CEST 7:46 PM CEST
Nautical Twilight 6:51 AM CEST 8:22 PM CEST
Astronomical Twilight 6:14 AM CEST 8:59 PM CEST
Moon 11:57 AM CEST (10/8) 9:17 PM CEST (10/8)
Length of Visible Light 12h 17m
Length of Day
11h 14m
Waxing Crescent, 14% of the Moon is Illuminated
Oct 8
Waxing Crescent
Oct 12
First Quarter
Oct 19
Full
Oct 27
Last Quarter
Nov 3
New

Hourly Weather History & Observations

Time (CEST) Temp. Dew Point Humidity Pressure Visibility Wind Dir Wind Speed Gust Speed Precip Events Conditions
12:00 AM 51.8 °F 50.0 °F 94% 30.30 in 6.2 mi North 2.3 mph - N/A   Unknown
12:30 AM 51.8 °F 50.0 °F 94% 30.30 in 6.2 mi Calm Calm - N/A   Unknown
1:00 AM 51.8 °F 50.0 °F 94% 30.30 in 6.2 mi Calm Calm - N/A   Mostly Cloudy
1:30 AM 51.8 °F 50.0 °F 94% 30.30 in 6.2 mi Calm Calm - N/A   Mostly Cloudy
2:00 AM 53.6 °F 51.8 °F 94% 30.30 in 6.2 mi Variable 3.5 mph - N/A   Unknown
2:30 AM 53.6 °F 51.8 °F 94% 30.27 in 6.2 mi North 2.3 mph - N/A   Overcast
3:00 AM 53.6 °F 51.8 °F 94% 30.27 in 6.2 mi North 2.3 mph - N/A   Unknown
3:30 AM 53.6 °F 51.8 °F 94% 30.27 in 6.2 mi Calm Calm - N/A   Unknown
4:00 AM 53.6 °F 51.8 °F 94% 30.27 in 6.2 mi Calm Calm - N/A   Unknown
4:30 AM 53.6 °F 51.8 °F 94% 30.27 in 6.2 mi Calm Calm - N/A   Unknown
5:00 AM 53.6 °F 51.8 °F 94% 30.27 in 6.2 mi Calm Calm - N/A   Unknown
5:30 AM 55.4 °F 51.8 °F 88% 30.27 in 6.2 mi Calm Calm - N/A   Unknown
6:00 AM 55.4 °F 51.8 °F 88% 30.27 in 6.2 mi Calm Calm - N/A   Unknown
6:30 AM 55.4 °F 51.8 °F 88% 30.27 in 6.2 mi Calm Calm - N/A   Overcast
7:00 AM 55.4 °F 51.8 °F 88% 30.27 in 6.2 mi Calm Calm - N/A   Mostly Cloudy
7:30 AM 53.6 °F 51.8 °F 94% 30.27 in 6.2 mi Calm Calm - N/A   Overcast
8:00 AM 53.6 °F 51.8 °F 94% 30.27 in 6.2 mi Calm Calm - N/A   Overcast
8:30 AM 55.4 °F 51.8 °F 88% 30.27 in 6.2 mi Calm Calm - N/A   Overcast
9:00 AM 55.4 °F 53.6 °F 94% 30.30 in 5.0 mi Calm Calm - N/A   Overcast
9:30 AM 57.2 °F 53.6 °F 88% 30.30 in 6.2 mi Calm Calm - N/A   Overcast
10:00 AM 57.2 °F 55.4 °F 94% 30.30 in 6.2 mi Variable 2.3 mph - N/A   Overcast
10:30 AM 57.2 °F 53.6 °F 88% 30.30 in 6.2 mi NNW 4.6 mph - N/A   Overcast
11:00 AM 59.0 °F 53.6 °F 82% 30.30 in 6.2 mi North 4.6 mph - N/A   Unknown
11:30 AM 60.8 °F 53.6 °F 77% 30.33 in 6.2 mi NNW 3.5 mph - N/A   Unknown
12:00 PM 60.8 °F 53.6 °F 77% 30.30 in 6.2 mi North 4.6 mph - N/A   Unknown
12:30 PM 62.6 °F 53.6 °F 72% 30.30 in 6.2 mi North 3.5 mph - N/A   Unknown
1:00 PM 62.6 °F 53.6 °F 72% 30.30 in 6.2 mi North 6.9 mph - N/A   Mostly Cloudy
1:30 PM 64.4 °F 51.8 °F 64% 30.30 in 6.2 mi North 6.9 mph - N/A   Mostly Cloudy
2:00 PM 66.2 °F 53.6 °F 64% 30.30 in 6.2 mi Variable 3.5 mph - N/A   Mostly Cloudy
2:30 PM 64.4 °F 53.6 °F 68% 30.30 in 6.2 mi NNW 5.8 mph - N/A   Overcast
3:00 PM 66.2 °F 51.8 °F 60% 30.27 in 6.2 mi NNW 5.8 mph - N/A   Mostly Cloudy
3:30 PM 66.2 °F 51.8 °F 60% 30.27 in 6.2 mi NNW 4.6 mph - N/A   Mostly Cloudy
4:00 PM 66.2 °F 50.0 °F 56% 30.27 in 6.2 mi North 6.9 mph - N/A   Mostly Cloudy
4:30 PM 66.2 °F 50.0 °F 56% 30.27 in 6.2 mi NW 4.6 mph - N/A   Unknown
5:00 PM 68.0 °F 48.2 °F 49% 30.27 in 6.2 mi WNW 3.5 mph - N/A   Mostly Cloudy
5:30 PM 64.4 °F 50.0 °F 59% 30.27 in 6.2 mi North 5.8 mph - N/A   Overcast
6:00 PM 64.4 °F 51.8 °F 64% 30.27 in 6.2 mi North 3.5 mph - N/A   Unknown
6:30 PM 64.4 °F 51.8 °F 64% 30.27 in 6.2 mi NNW 2.3 mph - N/A   Unknown
7:00 PM 64.4 °F 51.8 °F 64% 30.27 in 6.2 mi NNW 2.3 mph - N/A   Overcast
7:30 PM 62.6 °F 51.8 °F 68% 30.30 in 6.2 mi NW 2.3 mph - N/A   Unknown
8:00 PM 62.6 °F 53.6 °F 72% 30.30 in 6.2 mi Variable 2.3 mph - N/A   Unknown
8:30 PM 62.6 °F 53.6 °F 72% 30.30 in 6.2 mi NW 3.5 mph - N/A   Unknown
9:00 PM 60.8 °F 55.4 °F 82% 30.30 in 6.2 mi Variable 3.5 mph - N/A   Overcast
9:30 PM 60.8 °F 55.4 °F 82% 30.30 in 6.2 mi NW 3.5 mph - N/A   Overcast
10:00 PM 60.8 °F 55.4 °F 82% 30.30 in 6.2 mi NW 4.6 mph - N/A   Unknown
10:30 PM 60.8 °F 55.4 °F 82% 30.30 in 6.2 mi NW 4.6 mph - N/A   Unknown
11:00 PM 60.8 °F 55.4 °F 82% 30.30 in 6.2 mi NW 3.5 mph - N/A   Unknown
11:30 PM 60.8 °F 55.4 °F 82% 30.30 in 6.2 mi Variable 2.3 mph - N/A   Overcast